Location: Unspecified
(0.0000°N, 0.0000°E)
Time: 04:47:08
(UTC+00:00)

PRISMA (TANGO) - Visible Passes

Search period start: 08 June 2023 00:00
Search period end: 18 June 2023 00:00
Orbit: 719 x 778 km, 98.5° (Epoch: 07 June)

Date Brightness Start Highest point End Pass type
(mag) Time Alt. Az. Time Alt. Az. Time Alt. Az.
08 Jun ? 18:57:43 10° N 19:02:41 52° WNW 19:07:37 10° SSW visible
10 Jun ? 19:13:26 10° NNW 19:18:00 33° WNW 19:22:32 10° SW visible
11 Jun ? 18:31:22 10° NNE 18:36:29 74° ESE 18:41:32 10° S visible
12 Jun ? 19:29:27 10° NNW 19:33:18 22° WNW 19:37:08 10° SW visible
13 Jun ? 18:46:42 10° N 18:51:47 72° WNW 18:56:50 10° SSW visible
14 Jun ? 19:46:01 10° NW 19:48:35 14° WNW 19:51:08 10° WSW visible
15 Jun ? 19:02:14 10° N 19:07:05 46° WNW 19:11:54 10° SSW visible
16 Jun ? 18:20:37 10° NNE 18:25:34 53° ESE 18:30:27 10° S visible
17 Jun ? 19:18:01 10° NNW 19:22:23 29° WNW 19:26:44 10° SW visible
